Location: Unspecified
(0.0000°N, 0.0000°E)
Time: 11:42:27
(UTC+00:00)

Envisat - Pass Details

Date: 30 November 2018
Orbit: 764 x 766 km, 98.1° (Epoch: 15 October)

Event Time Altitude Azimuth Distance (km) Brightness Sun altitude
Rises 19:20:41 0° 169° (S) 3,227 6.4 -21.3°
Reaches altitude 10° 19:22:59 10° 169° (S) 2,299 5.6 -21.8°
Maximum altitude 19:28:03 87° 257° (WSW) 769 2.9 -23.0°
Drops below altitude 10° 19:33:07 10° 347° (NNW) 2,290 5.3 -24.1°
Enters shadow 19:34:21 - 347° (NNW) 2,790 5.8 -24.4°
